Weather History for Ann Arbor, MI

Change the Weather History Date:

Thursday, January 30, 2014

  Actual Average Record
Temperature  
Mean Temperature 16 °F -  
Max Temperature 27 °F 29 °F 61 °F (2013)
Min Temperature 7 °F 12 °F -5 °F (2003)
Degree Days  
Heating Degree Days 48    
Moisture  
Dew Point 10 °F    
Average Humidity 69    
Maximum Humidity 86    
Minimum Humidity 53    
Precipitation  
Precipitation 0.00 in - - ()
Sea Level Pressure  
Sea Level Pressure 29.96 in    
Wind  
Wind Speed 13 mph (SSW)    
Max Wind Speed 25 mph    
Max Gust Speed 34 mph    
Visibility 8 miles    
Events Snow    
Averages and records for this station are not official NWS values.
T = Trace of Precipitation, MM = Missing Value Source: NWS Daily Summary

Daily Weather History Graph

Daily Weather History Graph

Search for Another Location

Airport:

Trip Planner

Search our weather history database for the weather conditions in past years. The results will help you decide how hot, cold, wet, or windy it might be!

Date:

Astronomy

Jan. 30, 2014 Rise Set
Actual Time 7:50 AM EST 5:46 PM EST
Civil Twilight 7:20 AM EST 6:16 PM EST
Nautical Twilight 6:46 AM EST 6:50 PM EST
Astronomical Twilight 6:13 AM EST 7:23 PM EST
Moon 7:14 AM EST (1/30) 5:58 PM EST (1/30)
Length of Visible Light 10h 56m
Length of Day
9h 56m
Waning Crescent, 0% of the Moon is Illuminated
Jan 30
Waning Crescent
Jan 30
New
Feb 6
First Quarter
Feb 14
Full
Feb 22
Last Quarter

Hourly Weather History & Observations

Time (EST) Temp. Windchill Dew Point Humidity Pressure Visibility Wind Dir Wind Speed Gust Speed Precip Events Conditions
12:53 AM 7.0 °F -7.5 °F -0.9 °F 70% 30.18 in 10.0 mi SSW 10.4 mph - N/A   Clear
1:53 AM 7.0 °F -6.6 °F -0.9 °F 70% 30.16 in 10.0 mi SW 9.2 mph - N/A   Clear
2:53 AM 7.0 °F -5.7 °F -0.9 °F 70% 30.16 in 10.0 mi SSW 8.1 mph - N/A   Clear
3:53 AM 7.0 °F -5.7 °F -0.9 °F 70% 30.16 in 10.0 mi SSW 8.1 mph - N/A   Clear
4:53 AM 7.0 °F -6.6 °F -0.9 °F 70% 30.15 in 10.0 mi SSW 9.2 mph - N/A   Clear
5:53 AM 8.1 °F -3.2 °F -0.9 °F 67% 30.15 in 10.0 mi SSW 6.9 mph - N/A   Clear
6:53 AM 9.0 °F -5.1 °F -0.9 °F 64% 30.13 in 10.0 mi SSW 10.4 mph - N/A   Clear
7:53 AM 10.0 °F -4.5 °F -0.0 °F 64% 30.14 in 10.0 mi SSW 11.5 mph - N/A   Clear
8:53 AM 12.0 °F -3.4 °F 1.0 °F 61% 30.12 in 10.0 mi SSW 13.8 mph 21.9 mph N/A   Clear
9:53 AM 15.1 °F -0.6 °F 1.9 °F 56% 30.09 in 10.0 mi SSW 16.1 mph 25.3 mph N/A   Clear
10:53 AM 16.0 °F 1.1 °F 3.9 °F 59% 30.08 in 10.0 mi SSW 15.0 mph 21.9 mph N/A   Clear
11:53 AM 19.0 °F 4.0 °F 6.1 °F 57% 30.06 in 10.0 mi SSW 17.3 mph 26.5 mph N/A   Clear
12:53 PM 19.9 °F 6.2 °F 7.0 °F 57% 30.00 in 10.0 mi SSW 15.0 mph 26.5 mph N/A   Clear
1:53 PM 21.0 °F 8.1 °F 8.1 °F 57% 29.95 in 10.0 mi South 13.8 mph 24.2 mph N/A   Partly Cloudy
2:53 PM 21.9 °F 7.3 °F 8.1 °F 55% 29.90 in 10.0 mi South 18.4 mph 26.5 mph N/A   Mostly Cloudy
3:53 PM 23.0 °F 8.7 °F 8.1 °F 53% 29.84 in 10.0 mi South 18.4 mph 29.9 mph N/A   Scattered Clouds
4:53 PM 23.0 °F 11.1 °F 9.0 °F 55% 29.83 in 10.0 mi South 12.7 mph 20.7 mph N/A   Overcast
5:53 PM 23.0 °F 12.4 °F 10.0 °F 58% 29.85 in 10.0 mi SSW 10.4 mph - N/A   Overcast
6:53 PM 24.1 °F 10.6 °F 10.9 °F 57% 29.86 in 6.0 mi SW 17.3 mph 28.8 mph 0.00 in Snow Light Snow
6:58 PM 24.8 °F 9.0 °F 14.0 °F 64% 29.82 in 1.5 mi SW 25.3 mph 34.5 mph 0.00 in Snow Light Snow
7:03 PM 23.0 °F 8.3 °F 15.8 °F 74% 29.82 in 0.8 mi SW 19.6 mph 34.5 mph 0.00 in Snow Light Snow
7:14 PM 21.2 °F 6.4 °F 17.6 °F 86% 29.82 in 0.8 mi SW 18.4 mph 28.8 mph 0.00 in Snow Light Snow
7:31 PM 23.0 °F 10.6 °F 19.4 °F 86% 29.81 in 1.5 mi SSW 13.8 mph - 0.00 in Snow Light Snow
7:40 PM 23.0 °F 10.1 °F 19.4 °F 86% 29.81 in 2.0 mi SSW 15.0 mph 23.0 mph 0.00 in Snow Light Snow
7:53 PM 23.0 °F 11.1 °F 19.0 °F 85% 29.86 in 4.0 mi SW 12.7 mph - 0.00 in Snow Light Snow
8:50 PM 24.8 °F 11.5 °F 19.4 °F 80% 29.81 in 8.0 mi SW 17.3 mph 29.9 mph 0.00 in   Overcast
8:53 PM 24.1 °F 9.8 °F 19.9 °F 84% 29.86 in 8.0 mi SW 19.6 mph 29.9 mph 0.00 in   Overcast
9:53 PM 25.0 °F 12.2 °F 19.9 °F 81% 29.86 in 10.0 mi SW 16.1 mph 21.9 mph N/A   Overcast
10:53 PM 26.1 °F 13.6 °F 21.0 °F 81% 29.87 in 10.0 mi SW 16.1 mph - N/A   Overcast
11:24 PM 26.6 °F 14.3 °F 21.2 °F 80% 29.83 in 10.0 mi SW 16.1 mph - N/A   Overcast
11:35 PM 26.6 °F 15.7 °F 21.2 °F 80% 29.83 in 10.0 mi SW 12.7 mph - N/A   Overcast
11:53 PM 27.0 °F 16.1 °F 21.9 °F 81% 29.87 in 10.0 mi SW 12.7 mph - N/A   Overcast